www.pogodaiklimat.ru

Погода и климат >> Архив погоды >> Индия >> Махараштра >> Булдхана


ПОГОДА в Булдхане

  • Прогноз погоды в Булдхане
  • Монитор погоды в Булдхане

АРХИВ ПОГОДЫ в Булдхане

Время (UTC), дата Ветер
(напр.,м/с)
 
Видим.   Явления Облачность Т
(С)
Тd
(С)
f
(%)
Тe
(С)
Тes
(С)
Комфортность P
(гПа)
Po
(гПа)
Тmin
(С)
Tmax
(С)
R
(мм)
R24
(мм)
S
(см)
12 11.08 ЮЗ 1 4000 м ясно +29.0 +23.4 72 +39 +42 очень
душно
1000.3 929.4 +29.4
03 12.08 СВ 1 4000 м ясно +25.8 +21.8 79 +33 +41 очень
душно
1004.4 932.5 +21.7
06 12.08 СЗ 1 4000 м ясно +29.0 +21.8 65 +37 +61 опасность
солнечного
удара
1005.1 933.9
09 12.08 СЗ 1 4000 м ясно +31.0 +22.5 61 +41 +60 опасность
перегрева
1002.7 932.1
12 12.08 СЗ 1 4000 м ясно +27.0 +22.4 76 +35 +38 очень
душно
1001.5 930.1 +27.3
03 13.08 СЗ 1 4000 м 10/5
[Sc Ac As Ci sp]
+24.6 +22.3 87 +32 +34 очень
душно
1004.8 932.6 +22.5
06 13.08 СЗ 1 4000 м 8/0
[Ac trans Ci fib]
+27.0 +22.7 77 +36 +48 очень
душно
1004.6 932.9
09 13.08 СЗ 1 4000 м 8/0
[Ac trans Ci fib]
+28.0 +22.3 71 +37 +47 очень
душно
1003.5 932.1
12 13.08 ЮЗ 1 4000 м 10/5 600 м
[Sc Ac As Ci sp]
+26.6 +22.9 80 +35 +36 очень
душно
1001.7 930.1 +27.0
03 14.08 СВ 1 4000 м 10/5 600 м
[Sc Ac As Ci sp]
+24.4 +22.4 89 +32 +34 очень
душно
1004.6 932.3 +22.9
06 14.08 СВ 1 4000 м 8/0
[Ac trans Ci fib]
+27.6 +22.1 72 +36 +48 очень
душно
1003.8 932.3
09 14.08 СЗ 1 4000 м 8/0
[Ac trans]
+21.6 +21.5 99 +28 +38 очень
душно
1003.3 930.5
12 14.08 СЗ 1 4000 м 10/5
[Sc Ac As Ci sp]
+26.8 +22.8 79 +36 +36 очень
душно
1001.2 929.7 +27.1
03 15.08 СЗ 1 4000 м 8/0
[Ac trans Ci fib]
+24.4 +21.8 85 +31 +35 очень
душно
1004.9 932.6 +22.3
06 15.08 СЗ 1 4000 м 8/0
[Ac trans]
+27.6 +21.5 69 +35 +48 очень
душно
1004.3 932.8
09 15.08 СВ 1 4000 м 8/0
[Ac trans Ci fib]
+29.8 +21.5 61 +38 +48 очень
душно
1003.2 932.3
12 15.08 ЮЗ 1 4000 м 8/0
[Ac trans Ci fib]
+28.0 +22.9 74 +37 +39 очень
душно
1002.0 930.7 +28.2
03 16.08 ЮЗ 1 4000 м ясно +25.4 +21.9 81 +33 +41 очень
душно
1004.2 932.2 +21.6
06 16.08 ЮЗ 1 4000 м ясно +29.2 +23.0 69 +39 +63 опасность
солнечного
удара
1004.2 933.1
09 16.08 СЗ 1 4000 м 8/0
[Ac trans Ci fib]
+30.0 +22.9 66 +40 +50 очень
душно
1002.9 932.0
12 16.08 СЗ 1 4000 м 8/0
[Ac trans Ci fib]
+28.8 +23.5 73 +39 +40 очень
душно
1001.0 930.0 +29.2
03 17.08 ЮЗ 1 4000 м ясно +26.0 +21.7 77 +33 +41 очень
душно
1005.0 933.1 +21.4
06 17.08 ЮЗ 1 4000 м 10/5
[Sc As op]
+27.8 +21.8 70 +36 +38 очень
душно
1004.9 933.4
09 17.08 СЗ 1 4000 м 10/5 600 м
[Sc Ac As Ci sp]
+29.0 +21.8 65 +37 +42 очень
душно
1004.0 932.8
12 17.08 ЮЗ 1 4000 м 8/0
[Ac trans Ci fib]
+26.6 +24.4 88 +37 +39 очень
душно
1003.0 931.4 +29.8 5
03 18.08 СВ 1 4000 м ясно +25.0 +20.6 77 +31 +39 очень
душно
1006.9 934.6 +21.2 5
06 18.08 СЗ 1 4000 м ясно +28.4 +22.1 69 +37 +61 опасность
солнечного
удара
1006.6 935.1
09 18.08 СВ 1 4000 м ясно +29.4 +23.2 69 +39 +58 опасность
солнечного
удара
1005.0 933.9

 

Местоположение метеостанции Булдхана (Махараштра, Индия): широта 20.53 долгота 76.23 высота над уровнем моря 650 м.

В архиве по умолчанию представлена погода в Булдхане за последнюю неделю. Архивные данные за месяц целиком и за предыдущие месяцы, начиная с января 2011 года, Вы можете получить, выбрав интересующий диапазон дат из раскрывающегося списка и нажав кнопку "Ввод!".


*Определитесь, кто Вы:
робот инопланетянин человек

Внимание! Время в таблицах - всемирное. Для получения местного времени необходимо прибавить поправку, которая равна 5.5 ч.

Смотрите также архив погоды в соседних городах и на ближайших метеорологических станциях:

Погода в Аколе (Махараштра, Индия) (85 км)
Погода в Джалгаоне (Махараштра, Индия) (90 км)
Погода в Джалне (Махараштра, Индия) (90 км)
Погода в Вашиме (Махараштра, Индия) (104 км)
Погода в Аурангабаде (Махараштра, Индия) (115 км)
Погода в Кхандве (Мадхья-Прадеш, Индия) (145 км)
Погода в Кхаргоне (Мадхья-Прадеш, Индия) (157 км)
Погода в Амравати (Махараштра, Индия) (167 км)
Погода в Парбхани (Махараштра, Индия) (168 км)
Погода в Малегаоне (Махараштра, Индия) (177 км)

Пояснения к столбцам:

Ветер - указаны скорость ветра в м/с - средняя за 10 мин, порывы в срок и между сроками (в фигурных скобках) и направление, откуда дует ветер: С - северный, СВ - северо-восточный, В - восточный, ЮВ - юго-восточный, Ю - южный, ЮЗ - юго-западный, З - западный, СЗ - северо-западный.
Видимость - горизонтальная дальность видимости в метрах или километрах. При видимости от 1 до 10 км при отсутствии осадков обычно наблюдается дымка, при ухудшении видимости до 1 км и менее - туман. В сухую погоду видимость может ухудшаться дымом, пылью или мглою.
Явления - указаны атмосферные явления, наблюдавшиеся в срок или в последний час перед сроком; фигурными скобками обозначены явления, наблюдавшиеся между сроками (за 1-3 часа до срока); квадратными скобками обозначены град или гололедные отложения с указанием их диаметра в мм.
Облачность - указаны через наклонную черту общая и нижняя облачность в баллах и высота нижней границы облаков в метрах; квадратными скобками обозначены формы облаков: Ci - перистые, Cs - перисто-слоистые, Cc - перисто-кучевые, Ac - высококучевые, As - высокослоистые, Sc - слоисто-кучевые, Ns - слоисто-дождевые, Cu - кучевые, Cb - кучево-дождевые. Подробнее классификацию облаков см. в Атласе облаков (PDF).
T - Температура воздуха - температура, измеренная на высоте 2 м над землей.
Td - Температура точки росы - температура, при понижении до которой содержащийся в воздухе водяной пар достигнет насыщения.
f - Относительная влажность воздуха - влажноcть воздуха, измеренная на высоте 2 м над землей.
Te - Эффективная температура - температура, которую ощущает одетый по сезону человек в тени. Характеристика душности погоды. При расчете учитывается влияние влажности воздуха и скорости ветра на теплоощущения человека.
Tes - Эффективная температура на солнце - температура, которую ощущает человек, с поправкой на солнечный нагрев. Характеристика знойности погоды. Зависит от высоты солнца над горизонтом, облачности и скорости ветра. Ночью, в пасмурную погоду, а также при ветре 12 м/с и более поправка равна нулю.
P - Атмосферное давление - приведенное к уровню моря атмосферное давление.
Po - Атмосферное давление - измеренное на уровне метеостанции атмосферное давление.
Tmin - Минимальная температура - минимум температуры воздуха на высоте 2 м над землей.
Tmax - Максимальная температура - максимум температуры воздуха на высоте 2 м над землей.
R - Количество осадков - Количество выпавших осадков за период времени, мм. При наведении курсора мыши на число - период времени, за который выпало указанное количество осадков.
R24 - Количество осадков - Количество выпавших осадков за 24 часа, мм.
S - Снежный покров - Высота снежного покрова, см. При наведении курсора мыши на число - состояние снежного покрова и степень покрытия местности в баллах.